SL-8 DEB *, 13499

Orbit data source: Space-Track

SL-8 DEB *, 13499 is space debris in LEO originally from a launch on Thu, 15 Jul 1976 UTC launched from the Plesetsk Missile And Space Complex (PKMTR). Debris objects in space refer to the collection of defunct objects orbiting the Earth. Examples of debris include non-operational satellites, rocket bodies, and fragments generated from explosions, collisions, or faulty payload assembly.

Loading next visibility...
Identifier
13499, 1976-069D
Orbit
LEO
Country
Flag of CISCIS
Related business
Manufacturer
Unknown
Mission
Spacecraft
Bus & Motor
Unknown
Mass
Unknown
Launch date (UTC)
1976-07-15 (50 years ago)
Launch vehicle
Unknown
Launch site
Plesetsk Missile And Space Complex (PKMTR)
Object type
Payload
Rocket body
Debris
Shape & HBR
Unknown shape, 0.1 m
Radar Cross Section
Medium (>0.1 m² and <1 m²)

Expand to show TLE details & history
Last TLE update: 10 hours ago

TLE from 10 hours ago
0 SL-8 DEB *
1 13499U 76069D   26164.75376211  .00001897  00000-0  37323-3 0  9991
2 13499  74.0525 333.6301 0012992 207.4995 172.2734 14.63268798395400
Epoch: 2026-06-13T18:05Z
TLE epoch observation values (Epoch: 2026-06-13T18:05:25.046Z)
Latitude
19.00529°
Longitude
165.82928°
Altitude
693.879 km
Speed
7.506 km/s
True Right ascension
22h 36m 59s
True Declination
18° 53' 55"
Sunlit
Object was in daylight at epoch
Visualization orbit readout
Latitude
Unknown
Longitude
Unknown
Altitude
Unknown
Speed
Unknown
Apparent Right ascension
Unknown
Apparent Declination
Unknown
Sunlit
N/A
Visualization observer readout
Local Sidereal Time
14:30:17
Azimuth
Unknown
Elevation
Unknown
Doppler factor
Unknown
Orbital elements
Apogee altitude
689.402 km
Perigee altitude
671.061 km
Semi-major axis
7,058.368 km
Eccentricity
0.0013
Inclination
74.0525°
RAAN
333.6301°
Arg. of periapsis
207.4995°
True anomaly
172.29338°
Mean anomaly
172.2734°
Eccentric anomaly
172.2834°
Mean motion
3.66005 °/min
Orbital period
98.36 mins
BSTAR
0.00037323
Loading maneuver chart data...
Computing Atmospheric mass density...
Loading historical data...
Loading historical data...
Loading historical data...
Loading historical data...
Loading historical data...
Loading historical data...
Loading historical data...
Other satellites on launch #69 in the year 1976 (1976-07-15 UTC)

Documentation

Showing up to 5 results
|